Regional Weather Roundup
Issued by NWS

Home | Current Version | Previous Version | Graphics & Text | Print | Product List | Glossary On
Versions: 1 2 3 4 5 6 7 8 9 10 11 12 13 14 15 16 17 18 19 20 21 22 23 24 25 26 27 28 29 30 31 32 33 34 35 36 37 38 39 40 41 42 43 44 45 46 47 48 49 50
000
ASUS43 KFSD 220410
RWRSD

WEATHER ROUNDUP FOR SOUTH DAKOTA
NATIONAL WEATHER SERVICE SIOUX FALLS SD
1100 PM CDT MON JUL 21 2014

NOTE: "FAIR" INDICATES FEW OR NO CLOUDS BELOW 12,000 FEET WITH NO
SIGNIFICANT WEATHER AND/OR OBSTRUCTIONS TO VISIBILITY.


SDZ001>005-009-010-012>017-220500-
NORTHWEST AND NORTH CENTRAL SOUTH DAKOTA

CITY           SKY/WX    TMP DP  RH WIND       PRES   REMARKS
BUFFALO          N/A     68  61  78 N14       29.97R
FAITH            N/A     70  65  84 N9        29.99R
MOBRIDGE       CLEAR     67  64  90 N10       29.91R
$$

SDZ012>016-024>037-041>051-057-063-072>074-220500-
SOUTHWEST AND SOUTH CENTRAL SOUTH DAKOTA

CITY           SKY/WX    TMP DP  RH WIND       PRES   REMARKS
RAPID CTY ARPT CLEAR     73  56  54 N9        30.00R
PIERRE         CLEAR     78  68  71 N10       29.86R
CUSTER         PTCLDY    71  47  42 N6        30.16R
ELLSWORTH AFB  CLEAR     80  56  44 N13       30.01R
PHILIP         PTCLDY    81  64  56 N13       29.91R
PINE RIDGE     PTCLDY    80  53  39 VRB5      29.98R
WINNER         FAIR      85  57  38 NW3       29.87R
$$

SDZ004>011-016>023-039-040-220500-
NORTHEAST SOUTH DAKOTA

CITY           SKY/WX    TMP DP  RH WIND       PRES   REMARKS
ABERDEEN       PTCLDY    68  64  87 N9        29.82R
WATERTOWN      PTCLDY    79  76  90 SW9       29.81R
SISSETON         N/A     75  65  70 NW21      29.76R
$$

SDZ017-020-022-023-036>040-048>070-220500-
SOUTHEAST SOUTH DAKOTA

CITY           SKY/WX    TMP DP  RH WIND       PRES   REMARKS
SIOUX FALLS    CLEAR     83  77  82 S9        29.81R
HURON          CLEAR     81  69  67 N15       29.81R
CHAMBERLAIN    CLEAR     86  62  45 N13       29.83R
MITCHELL       CLEAR     78  76  93 CALM      29.80R
YANKTON        PTCLDY    81  77  89 E3        29.80R
$$

ABBREVIATIONS USED IN REMARKS
   TC - TEMPERATURE IN CELSIUS
  WCI - WIND CHILL INDEX
   HX - HEAT INDEX
  VSB - VISIBILITY



USA.gov is the U.S. government's official web portal to all federal, state and local government web resources and services.